Regional Weather Roundup
Issued by NWS Goodland, KS

Home | Current Version | Previous Version | Text Only | Print | Product List | Glossary Off
Versions: 1 2 3 4 5 6 7 8 9 10 11 12 13 14 15 16 17 18 19 20 21 22 23 24 25 26 27 28 29 30 31 32 33 34 35 36 37 38 39 40 41 42 43 44 45 46 47 48 49 50

000
ASUS43 KGLD 261708
RWRGLD

GOODLAND FORECAST AREA HOURLY WEATHER ROUNDUP
NATIONAL WEATHER SERVICE GOODLAND KS
1100 AM MDT SUN APR 26 2015

...OFFICIAL OBSERVATIONS...

CITY           SKY/WX    TMP DP  RH WIND       PRES   REMARKS
GOODLAND KS    LGT RAIN  43  43 100 E18       29.92R FOG
HILL CITY KS   CLOUDY    48  44  86 E15       29.96R
IMPERIAL NEB   LGT RAIN  43  41  93 SE16      29.96R FOG
MCCOOK NEB     CLOUDY    46  42  86 E12       29.97R
AKRON CO       CLOUDY    41  41 100 E12       29.91S FOG
BURLINGTON CO  CLOUDY    42  41  96 E16       29.90R FOG
LIMON CO       CLOUDY    42  42 100 E17       29.87R FOG
$$

...UNOFFICIAL OBSERVATIONS...

CITY           SKY/WX    TMP DP  RH WIND       PRES   REMARKS
GOVE KS          N/A     47  32  56 MISG        N/A
LENORA KS        N/A     46  32  58 MISG        N/A
SHARON SPRINGS   N/A     44  43  97 N13G20      N/A
TRIBUNE KS     CLOUDY    46  46 100 E16       29.90R
KIT CARSON CO    N/A     43  40  91 MISG        N/A
YUMA CO          N/A     49  49 100 E13         N/A
$$


USA.gov is the U.S. government's official web portal to all federal, state and local government web resources and services.